Content
SEND FEEDBACK

Daily
Averages
Monthly
Summary
Italy

VENICE - AIRPORT, ITALY


Home > Europe > Italy
Elevation: 20 feet     Latitude: 45 30N     Longitude: 012 19E

WEATHER
 
SELECT A DAY
Number of Records: 303,292;   Date Range: 7/1/96 - 8/31/14
 
SHARE

PRINT THIS DATA

[ ← Previous Day ]
WEATHER ALMANAC - DECEMBER 31, 2013
[ Next Day → ]
[ °C ]   °F
Weather ElementAverageHighLow
Temperature43 °F51.8 °F (3:20 pm)37.4 °F (7:50 am)
Dewpoint34 °F39.2 °F (12:20 pm)32 °F (3:20 am)
Humidity69.7 %87 % (5:50 am)40 % (4:00 pm)
Barometer30.18 in30.26 in (1:00 am)30.12 in (2:50 pm)
Wind Speed2.7 mph6.9 mph (3:50 am)
Weather ElementAverage
Visibility27 mi
Wind DirectionSE (130.6 °)

Weather ElementTotal
Precipitation---
Heating Degree Days20.4 (Base 65)
Averaged from 55 records on December 31, 2013
WEATHER CONDITIONS BREAKOUT
WIND DIRECTION BREAKOUT
WEATHER BY HOUR - DECEMBER 31, 2013
[ °C ]   °F
Local TimeTemperatureDewpointHumidityBarometerVisibilityWind DirectionWind SpeedGust SpeedPrecipitationEventsConditions
12:50 AM44.6 °F35.6 °F71 %30.24 inNW (320°)4.6 mphClear
1:00 AM44.0 °F36.0 °F64 %30.26 in16.0 miNNW (330°)4.6 mphClear
1:20 AM42.8 °F35.6 °F76 %30.24 inNW (320°)4.6 mphClear
1:50 AM42.8 °F33.8 °F70 %30.24 inNNW (330°)4.6 mphClear
2:20 AM42.8 °F33.8 °F70 %30.24 inVariable3.5 mphClear
2:50 AM42.8 °F33.8 °F70 %30.24 inNorth (360°)4.6 mphClear
3:20 AM42.8 °F32.0 °F66 %30.24 inNorth (360°)5.8 mphClear
3:50 AM41.0 °F32.0 °F70 %30.21 inNNW (340°)6.9 mphClear
4:00 AM42.0 °F32.0 °F59 %30.24 in19.0 miNNW (340°)6.9 mphClear
4:20 AM42.8 °F32.0 °F66 %30.21 inNNW (340°)4.6 mphClear
4:50 AM41.0 °F33.8 °F76 %30.21 inNNW (340°)5.8 mphClear
5:20 AM41.0 °F32.0 °F70 %30.21 inNorth (350°)5.8 mphClear
5:50 AM39.2 °F35.6 °F87 %30.21 inNNW (340°)4.6 mphClear
6:20 AM39.2 °F32.0 °F75 %30.21 inVariable3.5 mphClear
6:50 AM39.2 °F32.0 °F75 %30.21 inWNW (300°)4.6 mphClear
7:00 AM39.0 °F33.0 °F70 %30.21 in19.0 miWNW (300°)3.5 mphClear
7:20 AM39.2 °F32.0 °F75 %30.21 inWNW (300°)5.8 mphClear
7:50 AM37.4 °F32.0 °F81 %30.21 inNW (310°)4.6 mphClear
8:20 AM37.4 °F32.0 °F81 %30.21 inCalmClear
8:50 AM39.2 °F33.8 °F81 %30.21 inVariable2.3 mphClear
9:20 AM39.2 °F33.8 °F81 %30.21 inVariable1.2 mphClear
9:50 AM39.2 °F32.0 °F75 %30.21 inVariable2.3 mphClear
10:00 AM39.0 °F32.0 °F69 %30.23 in31.0 miNW (310°)2.3 mphPartly Cloudy
10:20 AM39.2 °F32.0 °F75 %30.21 inVariable3.5 mphClear
10:50 AM41.0 °F32.0 °F70 %30.21 inVariable1.2 mphClear
11:20 AM41.0 °F32.0 °F70 %30.21 inVariable2.3 mphClear
11:50 AM41.0 °F32.0 °F70 %30.18 inVariable2.3 mphClear
12:20 PM46.4 °F39.2 °F76 %30.18 inVariable1.2 mphClear
12:50 PM50.0 °F39.2 °F66 %30.18 inVariable2.3 mphClear
1:00 PM49.0 °F38.0 °F55 %30.18 in25.0 miNorth (350°)2.3 mphPartly Cloudy
1:20 PM50.0 °F33.8 °F54 %30.15 inVariable2.3 mphClear
1:50 PM50.0 °F33.8 °F54 %30.15 inVariable1.2 mphClear
2:20 PM50.0 °F33.8 °F54 %30.15 inCalmClear
2:50 PM50.0 °F33.8 °F54 %30.12 inCalmClear
3:20 PM51.8 °F33.8 °F50 %30.15 inCalmClear
3:50 PM51.8 °F33.8 °F50 %30.15 inCalmClear
4:00 PM51.0 °F34.0 °F40 %30.15 in47.0 miSouth (190°)1.2 mphClear
4:20 PM50.0 °F35.6 °F58 %30.12 inCalmClear
4:50 PM48.2 °F33.8 °F58 %30.12 inCalmClear
5:20 PM46.4 °F35.6 °F66 %30.12 inCalmClear
5:50 PM44.6 °F37.4 °F76 %30.12 inCalmClear
6:20 PM44.6 °F37.4 °F76 %30.12 inVariable1.2 mphClear
6:50 PM42.8 °F35.6 °F76 %30.12 inVariable1.2 mphClear
7:00 PM43.0 °F36.0 °F67 %30.14 in47.0 miCalm
7:20 PM41.0 °F33.8 °F76 %30.12 inVariable1.2 mphClear
7:50 PM41.0 °F35.6 °F81 %30.12 inVariable3.5 mphClear
8:20 PM42.8 °F35.6 °F76 %30.12 inVariable2.3 mphClear
8:50 PM41.0 °F35.6 °F81 %30.12 inVariable2.3 mphClear
9:20 PM41.0 °F35.6 °F81 %30.12 inVariable2.3 mphClear
9:50 PM41.0 °F33.8 °F76 %30.15 inVariable2.3 mphClear
10:00 PM41.0 °F34.0 °F68 %30.15 in12.0 miNW (310°)3.5 mph
10:20 PM41.0 °F33.8 °F76 %30.12 inNW (310°)4.6 mphClear
10:50 PM39.2 °F32.0 °F75 %30.15 inWNW (300°)4.6 mphClear
11:20 PM39.2 °F32.0 °F75 %30.12 inVariable3.5 mphClear
11:50 PM39.2 °F32.0 °F75 %30.12 inVariable1.2 mphClear
Hourly data recorded from LIPZ, located miles away from Venice - Airport, Italy







STORIES FROM OUR PARTNERS